Location: Heiligenberg
(48.5381°N, 7.3897°E)
Time: 03:20:14
(UTC+00:00)

ALOS - Pass Details

Date: 26 May 2022
Orbit: 682 x 683 km, 97.9° (Epoch: 26 June)

Event Time Altitude Azimuth Distance (km) Brightness Sun altitude
Rises 02:29:55 0° 20° (NNE) 3,057 7.1 -9.3°
Reaches altitude 10° 02:32:20 10° 29° (NNE) 2,137 6.3 -9.1°
Maximum altitude 02:36:40 37° 97° (E) 1,070 3.7 -8.6°
Drops below altitude 10° 02:40:57 10° 164° (SSE) 2,121 4.5 -8.1°
Sets 02:43:19 0° 173° (S) 3,031 5.2 -7.8°
